CZ-4 DEB, 26222

Orbit data source: Space-Track

CZ-4 DEB, 26222 is space debris in SSO originally from a launch on Thu, 14 Oct 1999 UTC launched from the Taiyaun Space Center, China (TSC). Debris objects in space refer to the collection of defunct objects orbiting the Earth. Examples of debris include non-operational satellites, rocket bodies, and fragments generated from explosions, collisions, or faulty payload assembly.

Loading next visibility...
Identifier
26222, 1999-057DL
Orbit
SSO
Country
Flag of CNCN / PRC
Related business
Manufacturer
Unknown
Mission
Spacecraft
Bus & Motor
Unknown
Mass
Unknown
Launch date (UTC)
1999-10-14 (26 years ago)
Launch vehicle
Unknown
Launch site
Taiyaun Space Center, China (TSC)
Object type
Payload
Rocket body
Debris
Shape & HBR
Unknown shape, 2.0 m
Radar Cross Section
Large (>1 m²)

Expand to show TLE details & history
Last TLE update: 8 hours ago

TLE from 8 hours ago
0 CZ-4 DEB
1 26222U 99057DL  26038.14673118  .00002230  00000-0  51674-3 0  9997
2 26222  98.4947  97.3567 0069524 123.6168 237.1688 14.54619715364862
Epoch: 2026-02-07T03:31Z
TLE epoch observation values (Epoch: 2026-02-07T03:31:17.573Z)
Latitude
-0.00009°
Longitude
-92.74094°
Altitude
740.535 km
Speed
7.47 km/s
True Right ascension
06h 29m 25s
True Declination
0° 00' 00"
Sunlit
Object was in full shadow at epoch
Visualization orbit readout
Latitude
Unknown
Longitude
Unknown
Altitude
Unknown
Speed
Unknown
Apparent Right ascension
Unknown
Apparent Declination
Unknown
Sunlit
N/A
Visualization observer readout
Local Sidereal Time
13:34:32
Azimuth
Unknown
Elevation
Unknown
Doppler factor
Unknown
Orbital elements
Apogee altitude
756.965 km
Perigee altitude
658.438 km
Semi-major axis
7,085.839 km
Eccentricity
0.00695
Inclination
98.4947°
RAAN
97.3567°
Arg. of periapsis
123.6168°
True anomaly
236.50252°
Mean anomaly
237.1688°
Eccentric anomaly
236.83535°
Mean motion
3.63878 °/min
Orbital period
98.93 mins
BSTAR
0.00051674
Loading maneuver chart data...
Computing Atmospheric mass density...

Documentation

Showing up to 5 results
|